Location: Christianberg
(48.9086°N, 14.0209°E)
Time: 22:30:38
(UTC+00:00)

FALCON 9 DEB - Pass Details

Date: 20 June 2021
Orbit: 362 x 379 km, 53.0° (Epoch: 04 August)

Event Time Altitude Azimuth Distance (km) Brightness Sun altitude
Rises 02:13:58 0° 293° (WNW) 2,274 6.6 -6.4°
Reaches altitude 10° 02:16:05 10° 287° (WNW) 1,415 5.5 -6.1°
Maximum altitude 02:19:07 44° 213° (SSW) 545 3.2 -5.8°
Drops below altitude 10° 02:22:07 10° 140° (SE) 1,399 5.7 -5.4°
Sets 02:24:12 0° 134° (SE) 2,245 6.8 -5.2°
